User: anonymous   Login
Location: Caltech
(34.1382°N, 118.1253°W)
Time: 01:09:09
(UTC-07:00)
Language:

Uribyol 2 - Orbit

View from above orbital plane
View from above orbital plane
View from above satellite
View from above satellite

Ground track
Ground track

The orbit data is extracted from the following two-line orbital elements,

1 22828U 93061F   17081.84763292 +.00000011 +00000-0 +21714-4 0  9990
2 22828 098.7869 045.3154 0009837 176.4276 183.6978 14.30626349193365
Epoch (UTC): 22 March 2017 20:20:35
Eccentricity: 0.0009837
inclination: 98.7869°
perigee height: 782 km
apogee height: 796 km
right ascension of ascending node: 45.3154°
argument of perigee: 176.4276°
revolutions per day: 14.30626349
mean anomaly at epoch: 183.6978°
orbit number at epoch: 19336

The dashed part of the orbit path shows where the satellite is in the earth's shadow,  

DLR